Toledo Express Airport
KTOL : now visible

Aeroporto :











RITROVATECI SU...

 
LOGIN :

Iscrizione | Disclaimer

   EN    FR    IT 

 









Sommario :    VFR   VFR Marginale   IFR   IFR Intensivo   IFR Molto Intensivo
Visibilità : 
Base nubi : 
>= 8 km
>= 3000ft
5 / 8 km
1000 / 3000 ft
1500m / 5 km
500 / 1000 ft
800 / 1500m
200 / 500 ft
< 800m
< 200 ft
Simboli :   Temporali  Nebbia  Neve Forte  Precipitazioni Forti  Vento > 20 kt







- Altitudine del aeroporto : 683 ft
- Codice IATA : TOL


KTOL - Toledo Express

ULTIMO METAR :
  • 182252Z 19007KT 10SM CLR 28/22 A2983 RMK AO2 SLP096 T02780222

METARs OBSOLETI :
  • 182152Z VRB05KT 10SM CLR 28/23 A2981 RMK AO2 SLP088 T02780228
  • 182052Z 16006KT 10SM CLR 24/22 A2981 RMK AO2 LTG DSNT E RAE10 SLP089 P0000 60046 T02440222 58043

TAF KTOL
Valido dal 18 a 20 ore il 19 a 18 ore UTC


182024Z 1820/1918 18009KT P6SM VCSH OVC100
TEMPO 1820/1821 5SM -SHRA BR OVC035
FM182300 22009KT P6SM SCT035
FM191400 23010G20KT P6SM SCT120
FM191600 23010G20KT P6SM BKN200
FIR KZOB / America del Nord



MetMap, La meteo Aeronautica in un colpo d'occhio ! - Copyright ORBIFLY Dicembre 2007 - Disclaimer

ORBIFLY MET'MAP TEAM :

Programmazione e sviluppo : Alexandra Zaïnal
Concezione e sviluppo : Baudouin d'Aumeries
Co-Programmazione e sviluppo : Marc-Olivier Méhu
Supporto tecnico e logistico : Manuel Goepfert
Aiuto per la traduzione : Arnaldo La Scala

Contatto : metmap@orbifly.com




FONTI E CREDITI :

   NOAA       Earth
Advisory